Location: Charlotte
(35.2269°N, 80.8433°W)
Time: 11:43:44
(UTC-04:00)

ISS - Visible Passes

Search period start: 18 September 2014 00:00
Search period end: 28 September 2014 00:00
Orbit: 414 x 417 km, 51.6° (Epoch: 18 September)

Date Brightness Start Highest point End Pass type
(mag) Time Alt. Az. Time Alt. Az. Time Alt. Az.
18 Sep -0.2 04:56:04 12° NNE 04:56:04 12° NNE 04:56:24 10° NNE visible
26 Sep -0.5 06:28:08 10° N 06:30:07 15° NNE 06:32:06 10° ENE visible
27 Sep -0.2 05:40:14 10° NNE 05:40:48 10° NNE 05:41:21 10° NNE visible
